Flag for U.S.A. Weather past 2 weeks in Vevay, Indiana, U.S.A.

Now
34 °F

Light rain. Overcast.


Feels Like: 30 °F
Forecast: 28 / 41 °F
Wind: 5 mph from South

Location: Cincinnati / Northern Kentucky International Airport

Current Time: Mar 1, 2015 at 11:49:31 AM

Latest Report: Mar 1, 2015 at 10:52 AM


Visibility: 7 mi

Pressure: 30.35 "Hg

Humidity: 79%

Dew point: 28 °F

Location of VevayLocation

Historic Weather in Vevay — Graph

°F

Vevay temperature yesterday

Maximum temperature yesterday: 29 °F (at 4:52 PM)
Minimum temperature yesterday: 12 °F (at 2:52 AM)
Average temperature yesterday: 21 °F

Past Weeks' High & Low Weather Summary

 TemperatureHumidityPressure
High35 °F (Feb 25, 3:52 PM)96% (Feb 21, 1:52 PM)30.75 "Hg (Feb 21, 1:52 PM)
Low-9 °F (Feb 20, 3:52 AM)24% (Feb 15, 2:52 PM)29.78 "Hg (Feb 14, 10:52 AM)
Average17 °F64%30.24 "Hg
* Reported Feb 14 9:52 AM — Mar 1 9:52 AM, Vevay, Weather by CustomWeather, © 2015

Note: Actual official high and low records may vary slightly from our data, if they occured in-between our weather recording intervals... More about our weather records

Advertising

Vevay weather history for previous 24 hours

 ConditionsComfort  
Time TempWeatherWind HumidityBarometerVisibility
9:52 AM
Sun, Mar 1
32 °FLight freezing rain. Mostly cloudy.5 mph82%30.37 "Hg5 mi
8:52 AM30 °FLight snow. Overcast.6 mph82%30.38 "Hg4 mi
7:52 AM30 °FOvercast.5 mph75%30.38 "Hg7 mi
6:52 AM29 °FLight freezing rain. Overcast.5 mph82%30.39 "Hg8 mi
5:52 AM28 °FLight snow. Ice fog.No wind85%30.42 "Hg4 mi
4:52 AM27 °FLight snow. Ice fog.5 mph89%30.41 "Hg5 mi
3:52 AM26 °FLight snow. Ice fog.7 mph88%30.40 "Hg5 mi
2:52 AM26 °FLight snow. Ice fog.5 mph84%30.43 "Hg5 mi
2:01 AM25 °FLight snow. Ice fog.5 mph86%30.44 "Hg2 mi
12:52 AM24 °FLight snow. Ice fog.6 mph84%30.49 "Hg1 mi
12:02 AM25 °FLight snow. Overcast.5 mph74%30.49 "Hg1 mi
11:52 PM
Sat, Feb 28
26 °FLight snow. Overcast.3 mph63%30.52 "Hg2 mi
10:52 PM27 °FOvercast.7 mph58%30.53 "Hg10 mi
9:52 PM27 °FMostly cloudy.5 mph55%30.53 "Hg10 mi
8:52 PM27 °FMostly cloudy.7 mph55%30.53 "Hg10 mi
7:52 PM28 °FMostly cloudy.8 mph53%30.54 "Hg10 mi
6:52 PM28 °FMostly cloudy.9 mph51%30.56 "Hg10 mi
5:52 PM28 °FOvercast.8 mph51%30.58 "Hg10 mi
4:52 PM29 °FOvercast.7 mph45%30.58 "Hg10 mi
3:52 PM28 °FPartly sunny.9 mph43%30.60 "Hg10 mi
2:52 PM27 °FMostly cloudy.9 mph45%30.62 "Hg10 mi
1:52 PM26 °FOvercast.5 mph42%30.66 "Hg10 mi
12:52 PM24 °FPartly sunny.6 mph46%30.69 "Hg10 mi
11:52 AM22 °FOvercast.7 mph50%30.72 "Hg10 mi
Weather by CustomWeather, © 2015

See weather overviewHow to use our weather pages